Regional Weather Roundup
Issued by NWS

Home | Current Version | Previous Version | Graphics & Text | Print | Product List | Glossary On
Versions: 1 2 3 4 5 6 7 8 9 10 11 12 13 14 15 16 17 18 19 20 21 22 23 24 25 26 27 28 29 30 31 32 33 34 35 36 37 38 39 40 41 42 43 44 45 46 47 48 49 50
168
ASUS45 KTFX 250210
RWRMT
MONTANA REGIONAL WEATHER ROUNDUP
NATIONAL WEATHER SERVICE GREAT FALLS MT
800 PM MDT MON APR 24 2017

NOTE: "FAIR" INDICATES FEW OR NO CLOUDS BELOW 12000 FEET WITH NO
SIGNIFICANT WEATHER AND/OR OBSTRUCTIONS TO VISIBILITY.

MTZ001>007-043-250300-
WEST OF THE DIVIDE

CITY           SKY/WX    TMP DP  RH WIND       PRES   REMARKS
KALISPELL      LGT RAIN  46  41  82 SW8       29.64R
MISSOULA       LGT RAIN  43  41  93 W5        29.68R FOG
BUTTE          LGT RAIN  37  32  82 SE7       29.62R WCI  32
MULLAN PASS    FOG       31  31 100 NW6       29.65R VSB 1/4 WCI  25
ANACONDA         N/A     39  36  87 W13       29.61S WCI  32
DEER LODGE       N/A     46  34  61 NW5       29.63R
EUREKA           N/A     46  37  71 SW5       29.65S
HAMILTON         N/A     46  37  71 NE5       29.65R
LIBBY            N/A     52  34  50 W5        29.63R
PLAINS           N/A     50  37  60 CALM      29.68
$$

MTZ008-052>055-250300-
SOUTHWEST MONTANA

CITY           SKY/WX    TMP DP  RH WIND       PRES   REMARKS
BOZEMAN        CLOUDY    48  35  60 NW8       29.56R
DILLON         LGT RAIN  38  35  89 W8        29.60R
W YELLOWSTONE  CLOUDY    34  32  93 SW7       29.61S WCI  28
ENNIS          CLOUDY    43  36  75 SW7G13    29.62R
THREE FORKS      N/A     47  24  40 CALM      29.61
TWIN BRIDGES     N/A     45  33  62 NW8       29.64
$$

MTZ009-010-012-014-046-048-049-054-250300-
EAST SLOPES AND CENTRAL MONTANA

CITY           SKY/WX    TMP DP  RH WIND       PRES   REMARKS
CUT BANK       MOCLDY    43  37  79 NE8       29.64R
GREAT FALLS    CLOUDY    47  37  68 NE14      29.62R
MALMSTROM AFB  MOCLDY    47  39  74 NE14      29.62R
HELENA         CLOUDY    51  36  56 SE7       29.57R
AUGUSTA        MOCLDY    44  36  73 E14       29.62R
BOWMANS CRNR     N/A     42  35  74 NE8       29.60R
CHOTEAU          N/A     43  37  81 NE8       29.65R
FAIRFIELD      LGT RAIN  45  35  70 NE13      29.62R
POWER          CLOUDY    46  37  70 NE12      29.61R
RAYNESFORD     CLOUDY    44  38  80 W7        29.61R
ULM            MOCLDY    49  38  66 NE15      29.60R
$$

MTZ011-013-016-021-045-047-050-051-250300-
NORTH CENTRAL MONTANA

CITY           SKY/WX    TMP DP  RH WIND       PRES   REMARKS
HAVRE          CLOUDY    50  38  63 E17       29.63R
LEWISTOWN      MOCLDY    42  36  79 E8        29.60S
N BAR RANCH    CLOUDY    41  37  87 CALM      29.64S
CHINOOK          N/A     48  36  61 E13G21    29.65R
DENTON           N/A     45  38  77 MISG      29.57R
FORT BENTON      N/A     46  41  81 MISG      29.63S
GEYSER         MOCLDY    44  37  78 N16       29.60R
GRASS RANGE    MOCLDY    42  40  92 CALM      29.59S
JUDITH GAP     MOCLDY    44  35  69 NW12      29.58S
STANFORD         N/A     42  38  83 W6        29.60R
WINIFRED         N/A     43  39  85 E13       29.60R
$$

MTZ017>020-022>027-061-062-250300-
NORTHEAST MONTANA

CITY           SKY/WX    TMP DP  RH WIND       PRES   REMARKS
GLASGOW        CLOUDY    35  26  69 E18       29.74R WCI  24
JORDAN           N/A     40  33  76 NE16      29.66R
SIDNEY         CLOUDY    34  28  79 NE13      29.76R WCI  25
WOLF POINT     CLOUDY    35  26  69 E16       29.77R WCI  25
MALTA          PTCLDY    41  32  70 E17G25    29.70R
PLENTYWOOD       N/A     28  28 100 NE13      29.80R WCI  18
POPLAR           N/A     32  25  74 NE17      29.78R WCI  21
SCOBEY           N/A     29  19  66 NE8       29.78  WCI  21
$$

MTZ028>42-056>058-250300-
SOUTHCENTRAL AND SOUTHEAST MONTANA

CITY           SKY/WX    TMP DP  RH WIND       PRES   REMARKS
BAKER          CLOUDY    41  34  76 NE13      29.66R
BILLINGS       CLOUDY    46  41  82 NE15      29.58R
LIVINGSTON     CLOUDY    47  39  74 SE6       29.56R
MILES CITY     CLOUDY    46  37  71 NE17      29.64R
BIG TIMBER     MOCLDY    45  41  87 E8        29.59S FOG
LAUREL           N/A     47  39  73 N14       29.61R
ROUNDUP          N/A     47  38  71 NE7       29.56R
$$

REGIONAL REPORTS...DAKOTAS

CITY           SKY/WX    TMP DP  RH WIND       PRES   REMARKS
WILLISTON      CLOUDY    32  26  78 NE15      29.78R WCI  22
MINOT          CLOUDY    33  28  81 N10       29.77R WCI  25
DICKINSON      CLOUDY    31  27  85 NE16      29.68R WCI  20
BEACH          CLOUDY    36  32  87 NE12      29.72R WCI  27
TIOGA          CLOUDY    28  28 100 NE18      29.78S WCI  16
WATFORD CITY   CLOUDY    30  28  93 NE13      29.76R WCI  20
BISMARCK       CLOUDY    35  30  82 N14       29.71R WCI  26
GRAND FORKS    CLOUDY    36  34  92 N17G24    29.66R WCI  26
FARGO          CLOUDY    39  37  92 N20       29.59R WCI  29
BUFFALO SD       N/A     44  38  79 NE13      29.57R
RAPID CITY     CLOUDY    51  38  60 NE12      29.58S
$$

REGIONAL REPORTS...WYOMING/IDAHO/WASHINGTON

CITY           SKY/WX    TMP DP  RH WIND       PRES   REMARKS
GILLETTE       LGT RAIN  47  44  90 E12       29.53F
SHERIDAN       LGT RAIN  46  44  93 NE9       29.57R
BUFFALO WY     RAIN      43  39  86 NW16G26   29.56F FOG
CODY           CLOUDY    43  37  79 N10       29.57S
YELLOWSTONE LA   N/A     32  30  92 CALM      29.63S
IDAHO FALLS    CLOUDY    45  39  79 S17       29.62S
SALMON         CLOUDY    41  37  87 NW3       29.64R
BOISE          CLOUDY    48  40  73 NE8       29.72S
SPOKANE        MOCLDY    50  38  63 CALM      29.68R
$$

REGIONAL REPORTS...ALBERTA

CITY           SKY/WX    TMP DP  RH WIND       PRES   REMARKS
EDMONTON       MIX PCPN  34  32  93 N5        29.81R
CALGARY        LGT RAIN  37  34  87 NE14      29.72R WCI  29
LETHBRIDGE     MOCLDY    45  37  76 NE9       29.68R
MEDICINE HAT   MOCLDY    45  39  81 NE12G20   29.68R
WATERTON GATE    N/A     36  34  93 N2          N/A
MILK RIVER       N/A     43  37  81 N12         N/A
$$

REGIONAL REPORTS...SASKATCHEWAN

CITY           SKY/WX    TMP DP  RH WIND       PRES   REMARKS
SWIFT CURRENT  CLOUDY    30  25  80 E15G22    29.78R WCI  19
REGINA         CLOUDY    28  21  74 E16       29.88R WCI  17
SASKATOON      CLOUDY    30  23  74 E14       29.94R WCI  20
CYPRESS HILLS    N/A     34  32  93 SE8         N/A  WCI  27
VAL MARIE        N/A     34  27  75 E18         N/A  WCI  23
ASSINIBOIA       N/A     36  36 100 E10         N/A  WCI  28
$$




USA.gov is the U.S. government's official web portal to all federal, state and local government web resources and services.